Time,TemperatureF,DewpointF,PressureIn,WindDirection,WindDirectionDegrees,WindSpeedMPH,WindSpeedGustMPH,Humidity,HourlyPrecipIn,Conditions,Clouds,dailyrainin,SoftwareType,DateUTC
2013-03-24 00:02:00,52.0,28.0,-100.00,SE,129,1.0,2.0,40,-99.99,,,-99.99,,2013-03-24 07:02:00,
2013-03-24 00:11:00,52.0,29.0,-100.00,SSE,150,1.0,3.0,41,-99.99,,,-99.99,,2013-03-24 07:11:00,
2013-03-24 00:22:00,52.0,29.0,-100.00,SE,141,1.0,3.0,41,-99.99,,,-99.99,,2013-03-24 07:22:00,
2013-03-24 00:32:00,52.0,32.0,-100.00,East,98,1.0,4.0,46,-99.99,,,-99.99,,2013-03-24 07:32:00,
2013-03-24 00:42:00,51.0,32.0,-100.00,ENE,63,1.0,4.0,48,-99.99,,,-99.99,,2013-03-24 07:42:00,
2013-03-24 00:52:00,52.0,33.0,-100.00,East,90,1.0,2.0,48,-99.99,,,-99.99,,2013-03-24 07:52:00,
2013-03-24 01:02:00,52.0,34.0,-100.00,SSE,155,1.0,2.0,50,-99.99,,,-99.99,,2013-03-24 08:02:00,
2013-03-24 01:12:00,51.0,34.0,-100.00,SE,140,1.0,3.0,52,-99.99,,,-99.99,,2013-03-24 08:12:00,
2013-03-24 01:22:00,51.0,35.0,-100.00,SE,129,1.0,2.0,54,-99.99,,,-99.99,,2013-03-24 08:22:00,
2013-03-24 01:32:00,51.0,35.0,-100.00,SE,129,1.0,2.0,54,-99.99,,,-99.99,,2013-03-24 08:32:00,
2013-03-24 01:41:00,50.0,34.0,-100.00,SSE,152,1.0,3.0,54,-99.99,,,-99.99,,2013-03-24 08:41:00,
2013-03-24 01:52:00,51.0,34.0,-100.00,SSE,160,1.0,3.0,53,-99.99,,,-99.99,,2013-03-24 08:52:00,
2013-03-24 02:02:00,51.0,34.0,-100.00,SE,133,0.0,2.0,53,-99.99,,,-99.99,,2013-03-24 09:02:00,
2013-03-24 02:12:00,51.0,34.0,-100.00,SE,137,0.0,2.0,53,-99.99,,,-99.99,,2013-03-24 09:12:00,
2013-03-24 02:22:00,51.0,34.0,-100.00,NE,36,1.0,2.0,53,-99.99,,,-99.99,,2013-03-24 09:22:00,
2013-03-24 02:33:00,51.0,34.0,-100.00,North,11,2.0,3.0,53,-99.99,,,-99.99,,2013-03-24 09:33:00,
2013-03-24 02:42:00,51.0,34.0,-100.00,North,355,2.0,5.0,52,-99.99,,,-99.99,,2013-03-24 09:42:00,
2013-03-24 02:52:00,52.0,34.0,-100.00,North,11,1.0,3.0,51,-99.99,,,-99.99,,2013-03-24 09:52:00,
2013-03-24 03:02:00,51.0,34.0,-100.00,ENE,60,1.0,3.0,52,-99.99,,,-99.99,,2013-03-24 10:02:00,
2013-03-24 03:12:00,51.0,35.0,-100.00,NNE,21,1.0,2.0,54,-99.99,,,-99.99,,2013-03-24 10:12:00,
2013-03-24 03:22:00,50.0,34.0,-100.00,North,3,1.0,3.0,54,-99.99,,,-99.99,,2013-03-24 10:22:00,
2013-03-24 03:32:00,51.0,34.0,-100.00,NNE,14,2.0,3.0,53,-99.99,,,-99.99,,2013-03-24 10:32:00,
2013-03-24 03:42:00,52.0,34.0,-100.00,North,358,2.0,3.0,51,-99.99,,,-99.99,,2013-03-24 10:42:00,
2013-03-24 03:52:00,52.0,34.0,-100.00,NNE,15,1.0,2.0,51,-99.99,,,-99.99,,2013-03-24 10:52:00,
2013-03-24 04:02:00,51.0,35.0,-100.00,NNE,19,1.0,2.0,54,-99.99,,,-99.99,,2013-03-24 11:02:00,
2013-03-24 04:12:00,50.0,35.0,-100.00,North,6,1.0,2.0,57,-99.99,,,-99.99,,2013-03-24 11:12:00,
2013-03-24 04:22:00,49.0,35.0,-100.00,NNW,339,4.0,6.0,59,-99.99,,,-99.99,,2013-03-24 11:22:00,
2013-03-24 04:32:00,50.0,36.0,-100.00,NNE,13,1.0,4.0,59,-99.99,,,-99.99,,2013-03-24 11:32:00,
2013-03-24 04:42:00,50.0,37.0,-100.00,NE,39,2.0,4.0,60,-99.99,,,-99.99,,2013-03-24 11:42:00,
2013-03-24 04:51:00,50.0,37.0,-100.00,NE,35,2.0,5.0,60,-99.99,,,-99.99,,2013-03-24 11:51:00,
2013-03-24 05:02:00,50.0,36.0,-100.00,North,2,2.0,4.0,59,-99.99,,,-99.99,,2013-03-24 12:02:00,
2013-03-24 05:12:00,50.0,36.0,-100.00,NNW,341,3.0,5.0,58,-99.99,,,-99.99,,2013-03-24 12:12:00,
2013-03-24 05:22:00,49.0,36.0,-100.00,NNW,338,4.0,6.0,60,-99.99,,,-99.99,,2013-03-24 12:22:00,
2013-03-24 05:32:00,49.0,36.0,-100.00,NNW,334,4.0,6.0,61,-99.99,,,-99.99,,2013-03-24 12:32:00,
2013-03-24 05:42:00,48.0,36.0,-100.00,NNW,343,4.0,5.0,63,-99.99,,,-99.99,,2013-03-24 12:42:00,
2013-03-24 05:52:00,48.0,36.0,-100.00,NNW,338,5.0,6.0,64,-99.99,,,-99.99,,2013-03-24 12:52:00,
2013-03-24 06:02:00,48.0,37.0,-100.00,NNW,327,5.0,6.0,65,-99.99,,,-99.99,,2013-03-24 13:02:00,
2013-03-24 06:12:00,49.0,37.0,-100.00,NNW,327,5.0,7.0,64,-99.99,,,-99.99,,2013-03-24 13:12:00,
2013-03-24 06:22:00,49.0,37.0,-100.00,NNW,335,3.0,5.0,62,-99.99,,,-99.99,,2013-03-24 13:22:00,
2013-03-24 06:32:00,50.0,36.0,-100.00,NNW,340,3.0,5.0,59,-99.99,,,-99.99,,2013-03-24 13:32:00,
2013-03-24 06:42:00,50.0,35.0,-100.00,NNE,15,2.0,5.0,57,-99.99,,,-99.99,,2013-03-24 13:42:00,
2013-03-24 06:52:00,50.0,35.0,-100.00,North,353,1.0,3.0,57,-99.99,,,-99.99,,2013-03-24 13:52:00,
2013-03-24 07:02:00,50.0,35.0,-100.00,NNE,24,1.0,2.0,56,-99.99,,,-99.99,,2013-03-24 14:02:00,
2013-03-24 07:12:00,50.0,35.0,-100.00,NNE,17,2.0,3.0,56,-99.99,,,-99.99,,2013-03-24 14:12:00,
2013-03-24 07:22:00,50.0,34.0,-100.00,North,356,3.0,5.0,55,-99.99,,,-99.99,,2013-03-24 14:22:00,
2013-03-24 07:32:00,50.0,34.0,-100.00,North,6,3.0,5.0,54,-99.99,,,-99.99,,2013-03-24 14:32:00,
2013-03-24 07:42:00,50.0,34.0,-100.00,North,360,3.0,5.0,53,-99.99,,,-99.99,,2013-03-24 14:42:00,
2013-03-24 07:52:00,52.0,33.0,-100.00,North,354,2.0,4.0,49,-99.99,,,-99.99,,2013-03-24 14:52:00,
2013-03-24 08:01:00,53.0,33.0,-100.00,North,356,2.0,4.0,46,-99.99,,,-99.99,,2013-03-24 15:01:00,
2013-03-24 08:12:00,54.0,31.0,-100.00,NNE,20,1.0,3.0,42,-99.99,,,-99.99,,2013-03-24 15:12:00,
2013-03-24 08:33:00,54.0,31.0,-100.00,North,8,2.0,5.0,42,-99.99,,,-99.99,,2013-03-24 15:33:00,
2013-03-24 08:43:00,53.0,31.0,-100.00,NNE,12,3.0,5.0,42,-99.99,,,-99.99,,2013-03-24 15:43:00,
2013-03-24 08:52:00,53.0,30.0,-100.00,North,7,4.0,6.0,41,-99.99,,,-99.99,,2013-03-24 15:52:00,
2013-03-24 09:02:00,55.0,31.0,-100.00,NNE,15,3.0,5.0,39,-99.99,,,-99.99,,2013-03-24 16:02:00,
2013-03-24 09:12:00,56.0,31.0,-100.00,NE,41,2.0,4.0,38,-99.99,,,-99.99,,2013-03-24 16:12:00,
2013-03-24 09:22:00,57.0,32.0,-100.00,NE,46,2.0,4.0,38,-99.99,,,-99.99,,2013-03-24 16:22:00,
2013-03-24 09:32:00,58.0,31.0,-100.00,ENE,75,2.0,4.0,35,-99.99,,,-99.99,,2013-03-24 16:32:00,
2013-03-24 09:42:00,60.0,30.0,-100.00,ENE,71,2.0,4.0,32,-99.99,,,-99.99,,2013-03-24 16:42:00,
2013-03-24 09:52:00,61.0,29.0,-100.00,East,86,2.0,4.0,30,-99.99,,,-99.99,,2013-03-24 16:52:00,
2013-03-24 10:02:00,61.0,28.0,-100.00,ENE,66,2.0,5.0,28,-99.99,,,-99.99,,2013-03-24 17:02:00,
2013-03-24 10:12:00,61.0,21.0,-100.00,ENE,65,3.0,5.0,21,-99.99,,,-99.99,,2013-03-24 17:12:00,
2013-03-24 10:22:00,62.0,19.0,-100.00,NNE,18,2.0,5.0,19,-99.99,,,-99.99,,2013-03-24 17:22:00,
2013-03-24 10:32:00,63.0,22.0,-100.00,North,9,1.0,3.0,21,-99.99,,,-99.99,,2013-03-24 17:32:00,
2013-03-24 10:42:00,64.0,23.0,-100.00,ESE,110,2.0,5.0,21,-99.99,,,-99.99,,2013-03-24 17:42:00,
2013-03-24 10:52:00,65.0,23.0,-100.00,ENE,77,2.0,5.0,20,-99.99,,,-99.99,,2013-03-24 17:52:00,
2013-03-24 11:02:00,65.0,22.0,-100.00,North,350,3.0,7.0,19,-99.99,,,-99.99,,2013-03-24 18:02:00,
2013-03-24 11:12:00,65.0,31.0,-100.00,SW,220,3.0,10.0,28,-99.99,,,-99.99,,2013-03-24 18:12:00,
2013-03-24 11:22:00,66.0,31.0,-100.00,NNW,327,2.0,7.0,27,-99.99,,,-99.99,,2013-03-24 18:22:00,
2013-03-24 11:32:00,66.0,29.0,-100.00,WNW,299,3.0,8.0,25,-99.99,,,-99.99,,2013-03-24 18:32:00,
2013-03-24 11:42:00,65.0,29.0,-100.00,WNW,292,3.0,8.0,26,-99.99,,,-99.99,,2013-03-24 18:42:00,
2013-03-24 11:52:00,66.0,34.0,-100.00,WSW,248,3.0,9.0,31,-99.99,,,-99.99,,2013-03-24 18:52:00,
2013-03-24 12:02:00,65.0,35.0,-100.00,SW,235,4.0,9.0,33,-99.99,,,-99.99,,2013-03-24 19:02:00,
2013-03-24 12:12:00,65.0,35.0,-100.00,SW,220,4.0,10.0,33,-99.99,,,-99.99,,2013-03-24 19:12:00,
2013-03-24 12:22:00,66.0,35.0,-100.00,SW,219,3.0,8.0,32,-99.99,,,-99.99,,2013-03-24 19:22:00,
2013-03-24 12:31:00,66.0,36.0,-100.00,SW,230,3.0,9.0,33,-99.99,,,-99.99,,2013-03-24 19:31:00,
2013-03-24 12:42:00,67.0,36.0,-100.00,NNW,341,2.0,5.0,32,-99.99,,,-99.99,,2013-03-24 19:42:00,
2013-03-24 12:52:00,67.0,38.0,-100.00,SSW,213,3.0,9.0,34,-99.99,,,-99.99,,2013-03-24 19:52:00,
2013-03-24 13:02:00,67.0,38.0,-100.00,SSW,213,3.0,9.0,34,-99.99,,,-99.99,,2013-03-24 20:02:00,
2013-03-24 13:12:00,65.0,38.0,-100.00,SW,236,3.0,9.0,37,-99.99,,,-99.99,,2013-03-24 20:12:00,
2013-03-24 13:22:00,67.0,38.0,-100.00,WNW,291,4.0,13.0,35,-99.99,,,-99.99,,2013-03-24 20:22:00,
2013-03-24 13:32:00,67.0,38.0,-100.00,NW,326,3.0,7.0,34,-99.99,,,-99.99,,2013-03-24 20:32:00,
2013-03-24 13:42:00,67.0,38.0,-100.00,West,269,3.0,7.0,34,-99.99,,,-99.99,,2013-03-24 20:42:00,
2013-03-24 13:52:00,67.0,38.0,-100.00,WNW,291,3.0,11.0,34,-99.99,,,-99.99,,2013-03-24 20:52:00,
2013-03-24 14:02:00,67.0,38.0,-100.00,WSW,239,3.0,9.0,35,-99.99,,,-99.99,,2013-03-24 21:02:00,
2013-03-24 14:11:00,67.0,38.0,-100.00,WNW,290,3.0,8.0,35,-99.99,,,-99.99,,2013-03-24 21:11:00,
2013-03-24 14:22:00,67.0,38.0,-100.00,North,1,3.0,9.0,35,-99.99,,,-99.99,,2013-03-24 21:22:00,
2013-03-24 14:32:00,67.0,38.0,-100.00,NNW,333,3.0,9.0,35,-99.99,,,-99.99,,2013-03-24 21:32:00,
2013-03-24 14:43:00,67.0,40.0,-100.00,WNW,294,4.0,9.0,37,-99.99,,,-99.99,,2013-03-24 21:43:00,
2013-03-24 14:52:00,66.0,40.0,-100.00,NW,310,4.0,9.0,38,-99.99,,,-99.99,,2013-03-24 21:52:00,
2013-03-24 15:02:00,66.0,40.0,-100.00,NW,318,4.0,8.0,38,-99.99,,,-99.99,,2013-03-24 22:02:00,
2013-03-24 15:12:00,66.0,40.0,-100.00,WNW,299,3.0,10.0,39,-99.99,,,-99.99,,2013-03-24 22:12:00,
2013-03-24 15:22:00,66.0,40.0,-100.00,NW,323,3.0,8.0,39,-99.99,,,-99.99,,2013-03-24 22:22:00,
2013-03-24 15:32:00,66.0,41.0,-100.00,WNW,302,3.0,9.0,40,-99.99,,,-99.99,,2013-03-24 22:32:00,
2013-03-24 15:42:00,67.0,43.0,-100.00,NW,304,3.0,9.0,41,-99.99,,,-99.99,,2013-03-24 22:42:00,
2013-03-24 15:52:00,67.0,43.0,-100.00,NW,305,2.0,6.0,41,-99.99,,,-99.99,,2013-03-24 22:52:00,
2013-03-24 16:02:00,67.0,43.0,-100.00,NW,316,3.0,7.0,42,-99.99,,,-99.99,,2013-03-24 23:02:00,
2013-03-24 16:11:00,67.0,43.0,-100.00,NW,317,2.0,6.0,42,-99.99,,,-99.99,,2013-03-24 23:11:00,
2013-03-24 16:22:00,66.0,43.0,-100.00,NW,306,4.0,8.0,43,-99.99,,,-99.99,,2013-03-24 23:22:00,
2013-03-24 16:32:00,66.0,44.0,-100.00,NW,310,4.0,8.0,45,-99.99,,,-99.99,,2013-03-24 23:32:00,
2013-03-24 16:42:00,65.0,44.0,-100.00,NW,312,4.0,9.0,46,-99.99,,,-99.99,,2013-03-24 23:42:00,
2013-03-24 16:52:00,65.0,44.0,-100.00,NW,305,3.0,8.0,47,-99.99,,,-99.99,,2013-03-24 23:52:00,
2013-03-24 17:02:00,65.0,44.0,-100.00,NNW,327,4.0,8.0,46,-99.99,,,-99.99,,2013-03-25 00:02:00,
2013-03-24 17:12:00,65.0,44.0,-100.00,NNW,328,4.0,10.0,46,-99.99,,,-99.99,,2013-03-25 00:12:00,
2013-03-24 17:22:00,64.0,43.0,-100.00,NNW,342,3.0,6.0,46,-99.99,,,-99.99,,2013-03-25 00:22:00,
2013-03-24 17:32:00,64.0,43.0,-100.00,NNW,332,3.0,6.0,47,-99.99,,,-99.99,,2013-03-25 00:32:00,
2013-03-24 17:42:00,64.0,43.0,-100.00,NNW,332,3.0,6.0,47,-99.99,,,-99.99,,2013-03-25 00:42:00,
2013-03-24 17:52:00,63.0,42.0,-100.00,NNW,331,3.0,7.0,47,-99.99,,,-99.99,,2013-03-25 00:52:00,
2013-03-24 18:02:00,62.0,43.0,-100.00,NNW,339,4.0,7.0,49,-99.99,,,-99.99,,2013-03-25 01:02:00,
2013-03-24 18:12:00,62.0,43.0,-100.00,NNW,328,3.0,5.0,49,-99.99,,,-99.99,,2013-03-25 01:12:00,
2013-03-24 18:22:00,62.0,43.0,-100.00,NW,320,3.0,6.0,49,-99.99,,,-99.99,,2013-03-25 01:22:00,
2013-03-24 18:32:00,61.0,42.0,-100.00,NW,314,3.0,7.0,50,-99.99,,,-99.99,,2013-03-25 01:32:00,
2013-03-24 18:42:00,60.0,43.0,-100.00,WNW,298,3.0,5.0,53,-99.99,,,-99.99,,2013-03-25 01:42:00,
2013-03-24 18:52:00,59.0,43.0,-100.00,WNW,289,3.0,5.0,55,-99.99,,,-99.99,,2013-03-25 01:52:00,
2013-03-24 19:01:00,58.0,43.0,-100.00,West,277,2.0,5.0,58,-99.99,,,-99.99,,2013-03-25 02:01:00,
2013-03-24 19:11:00,58.0,44.0,-100.00,WNW,287,2.0,4.0,59,-99.99,,,-99.99,,2013-03-25 02:11:00,
2013-03-24 19:22:00,57.0,44.0,-100.00,WNW,287,2.0,5.0,61,-99.99,,,-99.99,,2013-03-25 02:22:00,
2013-03-24 19:32:00,57.0,44.0,-100.00,NW,312,3.0,6.0,62,-99.99,,,-99.99,,2013-03-25 02:32:00,
2013-03-24 19:42:00,56.0,44.0,-100.00,NW,323,5.0,7.0,63,-99.99,,,-99.99,,2013-03-25 02:42:00,
2013-03-24 19:52:00,56.0,44.0,-100.00,NNW,329,6.0,7.0,64,-99.99,,,-99.99,,2013-03-25 02:52:00,
2013-03-24 20:02:00,56.0,44.0,-100.00,NNW,333,6.0,8.0,65,-99.99,,,-99.99,,2013-03-25 03:02:00,
2013-03-24 20:12:00,55.0,43.0,-100.00,NNW,332,6.0,8.0,65,-99.99,,,-99.99,,2013-03-25 03:12:00,
2013-03-24 20:22:00,55.0,43.0,-100.00,NNW,332,6.0,8.0,65,-99.99,,,-99.99,,2013-03-25 03:22:00,
2013-03-24 20:33:00,56.0,45.0,-100.00,NNW,330,6.0,7.0,66,-99.99,,,-99.99,,2013-03-25 03:33:00,
2013-03-24 20:42:00,56.0,44.0,-100.00,NNW,348,4.0,5.0,65,-99.99,,,-99.99,,2013-03-25 03:42:00,
2013-03-24 20:52:00,55.0,44.0,-100.00,North,358,4.0,4.0,66,-99.99,,,-99.99,,2013-03-25 03:52:00,
2013-03-24 21:02:00,56.0,45.0,-100.00,North,353,4.0,5.0,66,-99.99,,,-99.99,,2013-03-25 04:02:00,
2013-03-24 21:12:00,55.0,44.0,-100.00,North,349,4.0,5.0,66,-99.99,,,-99.99,,2013-03-25 04:12:00,
2013-03-24 21:22:00,55.0,43.0,-100.00,North,357,5.0,6.0,65,-99.99,,,-99.99,,2013-03-25 04:22:00,
2013-03-24 21:32:00,55.0,43.0,-100.00,North,7,4.0,5.0,64,-99.99,,,-99.99,,2013-03-25 04:32:00,
2013-03-24 21:42:00,55.0,40.0,-100.00,NNE,12,5.0,7.0,56,-99.99,,,-99.99,,2013-03-25 04:42:00,
2013-03-24 21:52:00,56.0,35.0,-100.00,North,10,5.0,7.0,45,-99.99,,,-99.99,,2013-03-25 04:52:00,
2013-03-24 22:02:00,55.0,32.0,-100.00,North,359,4.0,6.0,41,-99.99,,,-99.99,,2013-03-25 05:02:00,
2013-03-24 22:12:00,55.0,29.0,-100.00,North,11,5.0,8.0,36,-99.99,,,-99.99,,2013-03-25 05:12:00,
2013-03-24 22:22:00,53.0,28.0,-100.00,North,350,5.0,7.0,38,-99.99,,,-99.99,,2013-03-25 05:22:00,
2013-03-24 22:32:00,54.0,28.0,-100.00,North,349,3.0,5.0,36,-99.99,,,-99.99,,2013-03-25 05:32:00,
2013-03-24 22:42:00,55.0,27.0,-100.00,North,352,3.0,6.0,34,-99.99,,,-99.99,,2013-03-25 05:42:00,
2013-03-24 22:52:00,55.0,29.0,-100.00,NNW,336,5.0,6.0,36,-99.99,,,-99.99,,2013-03-25 05:52:00,
2013-03-24 23:02:00,55.0,29.0,-100.00,NNW,339,4.0,6.0,36,-99.99,,,-99.99,,2013-03-25 06:02:00,
2013-03-24 23:12:00,56.0,29.0,-100.00,NNW,333,4.0,6.0,35,-99.99,,,-99.99,,2013-03-25 06:12:00,
2013-03-24 23:22:00,56.0,28.0,-100.00,North,7,2.0,4.0,34,-99.99,,,-99.99,,2013-03-25 06:22:00,
2013-03-24 23:32:00,56.0,28.0,-100.00,NNE,15,2.0,5.0,34,-99.99,,,-99.99,,2013-03-25 06:32:00,
2013-03-24 23:42:00,55.0,27.0,-100.00,North,9,2.0,5.0,34,-99.99,,,-99.99,,2013-03-25 06:42:00,
2013-03-24 23:52:00,56.0,29.0,-100.00,North,1,2.0,4.0,35,-99.99,,,-99.99,,2013-03-25 06:52:00,